When you browse on this site, cookies collect data to enhance your experience and personalize the content and advertising you see.
Visit our Privacy Policy to learn more. By continuing to use the site, you agree to this use of cookies and data.
  • In Germany
  • List of Countries
  • For 7 days
  • Water Temperature
  • Weather Map
  • Weather Widgets
  • user-avatar
    Login

    Hourly Weather Etchmiadzin

    Today, 22 January, Wednesday

    Time Temperature Precipitation Wind Pressure Humidity
    00:00 -3°C° 0 mm 1 mps 690 mmHg 60%
    01:00 -3°C° 0 mm 1 mps 690 mmHg 60%
    02:00 -3°C° 0 mm 1 mps 690 mmHg 61%
    03:00 -3°C° 0 mm 1 mps 690 mmHg 58%
    04:00 -4°C° 0 mm 1 mps 690 mmHg 58%
    05:00 -4°C° 0 mm 1 mps 690 mmHg 58%
    06:00 -4°C° 0 mm 1 mps 690 mmHg 58%
    07:00 -3°C° 0 mm 1 mps 690 mmHg 54%
    08:00 -2°C° 0 mm 1 mps 690 mmHg 51%
    09:00 -1°C° 0 mm 1 mps 690 mmHg 46%
    10:00 0°C° 0 mm 1 mps 690 mmHg 45%
    11:00 -1°C° 0 mm 2 mps 690 mmHg 43%
    12:00 +1°C° 0 mm 2 mps 689 mmHg 42%
    13:00 +2°C° 0 mm 2 mps 689 mmHg 42%
    14:00 +2°C° 0 mm 2 mps 688 mmHg 41%
    15:00 +3°C° 0 mm 1 mps 688 mmHg 40%
    16:00 +3°C° 0 mm 1 mps 688 mmHg 43%
    17:00 +2°C° 0 mm 1 mps 688 mmHg 46%
    18:00 +1°C° 0 mm 1 mps 689 mmHg 49%
    19:00 0°C° 0 mm 1 mps 688 mmHg 50%
    20:00 -1°C° 0 mm 1 mps 688 mmHg 52%
    21:00 -1°C° 0 mm 1 mps 687 mmHg 53%
    22:00 -2°C° 0 mm 1 mps 687 mmHg 53%
    23:00 -2°C° 0 mm 1 mps 687 mmHg 54%

    Tomorrow, 23 January, Thursday

    Time Temperature Precipitation Wind Pressure Humidity
    00:00 -3°C° 0 mm 1 mps 686 mmHg 54%
    01:00 -3°C° 0 mm 1 mps 686 mmHg 55%
    02:00 -3°C° 0 mm 1 mps 685 mmHg 56%
    03:00 -3°C° 0 mm 1 mps 685 mmHg 56%
    04:00 -4°C° 0 mm 1 mps 685 mmHg 58%
    05:00 -4°C° 0 mm 1 mps 684 mmHg 59%
    06:00 -4°C° 0 mm 1 mps 684 mmHg 60%
    07:00 -3°C° 0 mm 1 mps 684 mmHg 58%
    08:00 -3°C° 0 mm 1 mps 684 mmHg 55%
    09:00 -2°C° 0 mm 1 mps 684 mmHg 53%
    10:00 -1°C° 0 mm 1 mps 683 mmHg 50%
    11:00 0°C° 0 mm 1 mps 682 mmHg 47%
    12:00 +1°C° 0 mm 1 mps 682 mmHg 44%
    13:00 +1°C° 0 mm 0 mps 682 mmHg 44%
    14:00 +1°C° 0 mm 0 mps 681 mmHg 43%
    15:00 +1°C° 0 mm 0 mps 681 mmHg 42%
    16:00 +2°C° 0.1 mm 1 mps 681 mmHg 51%
    17:00 +1°C° 0.1 mm 1 mps 681 mmHg 59%
    18:00 -2°C° 0.1 mm 2 mps 681 mmHg 68%
    19:00 -2°C° 0 mm 2 mps 682 mmHg 70%
    20:00 -2°C° 0 mm 2 mps 682 mmHg 73%
    21:00 -2°C° 0 mm 2 mps 682 mmHg 76%
    22:00 -1°C° 0.3 mm 1 mps 682 mmHg 82%
    23:00 -1°C° 0.3 mm 1 mps 682 mmHg 87%

    Day after tomorrow, 24 January, Friday

    Time Temperature Precipitation Wind Pressure Humidity
    00:00 -1°C° 0.3 mm 1 mps 682 mmHg 93%
    01:00 -1°C° 0.2 mm 1 mps 682 mmHg 93%
    02:00 -1°C° 0.2 mm 1 mps 682 mmHg 92%
    03:00 -2°C° 0.2 mm 1 mps 682 mmHg 92%
    04:00 -3°C° 0 mm 0 mps 683 mmHg 90%
    05:00 -3°C° 0 mm 0 mps 683 mmHg 89%
    06:00 -3°C° 0 mm 0 mps 683 mmHg 87%
    07:00 -2°C° 0 mm 1 mps 684 mmHg 82%
    08:00 -1°C° 0 mm 1 mps 685 mmHg 76%
    09:00 -1°C° 0 mm 1 mps 685 mmHg 70%
    10:00 -2°C° 0 mm 2 mps 685 mmHg 62%
    11:00 -1°C° 0 mm 2 mps 685 mmHg 54%
    12:00 0°C° 0 mm 3 mps 685 mmHg 46%
    13:00 0°C° 0 mm 3 mps 686 mmHg 45%
    14:00 -1°C° 0 mm 4 mps 686 mmHg 43%
    15:00 -1°C° 0 mm 4 mps 686 mmHg 42%
    16:00 -2°C° 0 mm 4 mps 687 mmHg 44%
    17:00 -4°C° 0 mm 4 mps 687 mmHg 46%
    18:00 -5°C° 0 mm 3 mps 688 mmHg 47%
    19:00 -6°C° 0 mm 3 mps 689 mmHg 47%
    20:00 -6°C° 0 mm 3 mps 689 mmHg 47%
    21:00 -6°C° 0 mm 2 mps 690 mmHg 47%
    22:00 -6°C° 0 mm 2 mps 691 mmHg 47%
    23:00 -7°C° 0 mm 2 mps 691 mmHg 47%

    25 January, Saturday

    Time Temperature Precipitation Wind Pressure Humidity
    00:00 -7°C° 0 mm 2 mps 692 mmHg 46%
    01:00 -7°C° 0 mm 2 mps 692 mmHg 47%
    02:00 -8°C° 0 mm 2 mps 692 mmHg 47%
    03:00 -8°C° 0 mm 2 mps 692 mmHg 47%
    04:00 -9°C° 0 mm 2 mps 693 mmHg 48%
    05:00 -9°C° 0 mm 2 mps 693 mmHg 48%
    06:00 -8°C° 0 mm 1 mps 693 mmHg 48%
    07:00 -8°C° 0 mm 1 mps 693 mmHg 46%
    08:00 -7°C° 0 mm 1 mps 694 mmHg 44%
    09:00 -6°C° 0 mm 1 mps 694 mmHg 42%
    10:00 -4°C° 0 mm 1 mps 694 mmHg 40%
    11:00 -3°C° 0 mm 1 mps 693 mmHg 39%
    12:00 -2°C° 0 mm 1 mps 693 mmHg 38%
    13:00 -1°C° 0 mm 1 mps 692 mmHg 39%
    14:00 -1°C° 0 mm 1 mps 692 mmHg 39%
    15:00 -1°C° 0 mm 1 mps 692 mmHg 40%
    16:00 -2°C° 0 mm 1 mps 692 mmHg 43%
    17:00 -3°C° 0 mm 1 mps 691 mmHg 46%
    18:00 -4°C° 0 mm 1 mps 691 mmHg 49%
    19:00 -4°C° 0 mm 1 mps 691 mmHg 48%
    20:00 -6°C° 0 mm 1 mps 691 mmHg 47%
    21:00 -6°C° 0 mm 1 mps 691 mmHg 47%
    22:00 -6°C° 0 mm 1 mps 691 mmHg 47%
    23:00 -6°C° 0 mm 1 mps 691 mmHg 47%

    26 January, Sunday

    Time Temperature Precipitation Wind Pressure Humidity
    00:00 -6°C° 0 mm 1 mps 691 mmHg 47%
    01:00 -6°C° 0 mm 1 mps 691 mmHg 48%
    02:00 -7°C° 0 mm 1 mps 690 mmHg 49%
    03:00 -7°C° 0 mm 1 mps 690 mmHg 51%
    04:00 -7°C° 0 mm 1 mps 690 mmHg 51%
    05:00 -7°C° 0 mm 1 mps 690 mmHg 52%
    06:00 -8°C° 0 mm 1 mps 690 mmHg 53%
    07:00 -7°C° 0 mm 1 mps 690 mmHg 50%
    08:00 -6°C° 0 mm 0 mps 690 mmHg 46%
    09:00 -5°C° 0 mm 0 mps 691 mmHg 43%
    10:00 -3°C° 0 mm 0 mps 690 mmHg 41%
    11:00 -2°C° 0 mm 0 mps 690 mmHg 38%
    12:00 -1°C° 0 mm 0 mps 690 mmHg 36%
    13:00 -1°C° 0 mm 0 mps 689 mmHg 35%
    14:00 0°C° 0 mm 0 mps 689 mmHg 35%
    15:00 0°C° 0 mm 0 mps 689 mmHg 35%
    16:00 -1°C° 0 mm 0 mps 689 mmHg 38%
    17:00 -2°C° 0 mm 0 mps 689 mmHg 41%
    18:00 -4°C° 0 mm 0 mps 689 mmHg 44%
    19:00 -3°C° 0 mm 1 mps 689 mmHg 46%
    20:00 -3°C° 0 mm 1 mps 689 mmHg 47%
    21:00 -3°C° 0 mm 1 mps 689 mmHg 48%
    22:00 -3°C° 0 mm 1 mps 689 mmHg 48%
    23:00 -3°C° 0 mm 1 mps 689 mmHg 48%

    27 January, Monday

    Time Temperature Precipitation Wind Pressure Humidity
    00:00 -3°C° 0 mm 1 mps 689 mmHg 49%
    01:00 -3°C° 0 mm 1 mps 689 mmHg 49%
    02:00 -3°C° 0 mm 1 mps 689 mmHg 50%
    03:00 -4°C° 0 mm 1 mps 689 mmHg 50%
    04:00 -4°C° 0 mm 1 mps 690 mmHg 51%
    05:00 -5°C° 0 mm 0 mps 690 mmHg 52%
    06:00 -6°C° 0 mm 0 mps 690 mmHg 54%
    07:00 -5°C° 0 mm 0 mps 691 mmHg 50%
    08:00 -3°C° 0 mm 0 mps 692 mmHg 47%
    09:00 -2°C° 0 mm 0 mps 692 mmHg 44%
    10:00 -1°C° 0 mm 0 mps 693 mmHg 42%
    11:00 0°C° 0 mm 0 mps 693 mmHg 40%
    12:00 +2°C° 0 mm 0 mps 693 mmHg 38%
    13:00 +3°C° 0 mm 1 mps 693 mmHg 39%
    14:00 +3°C° 0 mm 1 mps 693 mmHg 39%
    15:00 +4°C° 0 mm 1 mps 693 mmHg 39%
    16:00 +3°C° 0 mm 1 mps 693 mmHg 43%
    17:00 +1°C° 0 mm 1 mps 694 mmHg 47%
    18:00 0°C° 0 mm 1 mps 694 mmHg 51%
    19:00 -1°C° 0 mm 1 mps 694 mmHg 52%
    20:00 -1°C° 0 mm 1 mps 694 mmHg 54%
    21:00 -2°C° 0 mm 1 mps 695 mmHg 55%
    22:00 -2°C° 0 mm 1 mps 695 mmHg 56%
    23:00 -2°C° 0 mm 1 mps 695 mmHg 57%
    Show more